[Date Prev][Date Next][Thread Prev][Thread Next] - [Date Index][Thread Index][Author Index]
2 Line ISS Keps 7-5
- Subject: [sarex] 2 Line ISS Keps 7-5
- From: "Dave Larsen PhD" <doc@xxxxxxxxxxx>
- Date: Mon, 5 Jul 2004 04:09:51 -0700
ISS
1 25544U 98067A 04187.36840317 .00011455 00000-0 99593-4 0 1450
2 25544 51.6312 233.0125 0005461 328.0012 140.1077 15.69589508321178
----
Via the sarex mailing list at AMSAT.ORG courtesy of AMSAT-NA.
To unsubscribe, send "unsubscribe sarex" to Majordomo@amsat.org
AMSAT Home